Kingston, Jamaica

2:25 AM EST on September 21, 2017 (GMT -0500)
Norman Manley International

Weather History for MKJP - September, 2011

Change the Weather History Date:

Friday, September 16, 2011

  Actual Average Record
Temperature  
Mean Temperature 83 °F -  
Max Temperature 89 °F 87 °F 93 °F (2002)
Min Temperature 77 °F 78 °F 73 °F (1999)
Cooling Degree Days 18    
Growing Degree Days 33 (Base 50)    
Moisture  
Dew Point 66 °F    
Average Humidity 57    
Maximum Humidity 74    
Minimum Humidity 42    
Precipitation  
Precipitation 0.01 in - - ()
Sea Level Pressure  
Sea Level Pressure 29.93 in    
Wind  
Wind Speed 8 mph ()    
Max Wind Speed 26 mph    
Max Gust Speed 33 mph    
Visibility 5.8 miles    
Events Rain , Thunderstorm    
Averages and records for this station are not official NWS values.
T = Trace of Precipitation, MM = Missing Value Source: Averaged Metar Reports

Daily Weather History Graph

Daily Weather History Graph

Search for Another Location

Airport or City:

Trip Planner

Search our weather history database for the weather conditions in past years. The results will help you decide how hot, cold, wet, or windy it might be!

Date:

Astronomy

Sep. 16, 2011 Rise Set
Actual Time 5:55 AM EST 6:08 PM EST
Civil Twilight 5:33 AM EST 6:30 PM EST
Nautical Twilight 5:08 AM EST 6:55 PM EST
Astronomical Twilight 4:42 AM EST 7:21 PM EST
Moon 8:46 PM EST (9/16) 9:12 AM EST (9/16)
Length of Visible Light 12h 57m
Length of Day
12h 13m
Waning Gibbous, 84% of the Moon is Illuminated
Sep 16
Waning Gibbous
Sep 20
Last Quarter
Sep 27
New
Oct 3
First Quarter
Oct 11
Full

Hourly Weather History & Observations

Time (EST) Temp. Heat Index Dew Point Humidity Pressure Visibility Wind Dir Wind Speed Gust Speed Precip Events Conditions
12:00 AM 82.4 °F 84.6 °F 66.2 °F 58% 29.95 in 6.2 mi NNW 4.6 mph - N/A Thunderstorm Scattered Clouds
1:00 AM 82 °F - 66 °F 50% 29.93 in 4 mi East 8.1 mph - -   Scattered Clouds
1:00 AM 82.4 °F 84.6 °F 66.2 °F 58% 29.92 in 6.2 mi East 8.1 mph - N/A Thunderstorm Scattered Clouds
2:00 AM 82.4 °F 84.6 °F 66.2 °F 58% 29.92 in 6.2 mi East 8.1 mph - N/A   Scattered Clouds
3:00 AM 80.6 °F 82.7 °F 66.2 °F 61% 29.89 in 6.2 mi North 4.6 mph - N/A   Partly Cloudy
4:00 AM 80 °F - 66 °F 53% 29.91 in 4 mi North 4.6 mph - -   Haze
4:00 AM 80.6 °F 82.7 °F 66.2 °F 61% 29.89 in 6.2 mi North 4.6 mph - N/A   Partly Cloudy
5:00 AM 80.6 °F 82.7 °F 66.2 °F 61% 29.89 in 6.2 mi East 4.6 mph - N/A   Partly Cloudy
6:00 AM 80.6 °F 82.7 °F 66.2 °F 61% 29.92 in 6.2 mi NNW 4.6 mph - N/A   Mostly Cloudy
7:00 AM 80 °F - 65 °F 50% 29.95 in 4 mi NNW 4.6 mph - -   Haze
7:00 AM 80.6 °F 82.3 °F 64.4 °F 58% 29.95 in 6.2 mi NNW 4.6 mph - N/A   Mostly Cloudy
8:00 AM 82.4 °F 83.9 °F 64.4 °F 54% 29.95 in 6.2 mi North 4.6 mph - N/A Thunderstorm Thunderstorm
9:00 AM 80.6 °F 83.2 °F 68.0 °F 65% 29.98 in 5.0 mi SSE 26.5 mph - N/A   Squalls
10:00 AM 79 °F - 69 °F 63% 30.00 in 12 mi ESE 16.1 mph - -   Mostly Cloudy
10:00 AM 78.8 °F - 68.0 °F 69% 29.98 in 6.2 mi SE 16.1 mph - N/A   Mostly Cloudy
11:00 AM 77.0 °F - 68.0 °F 74% 30.01 in 6.2 mi ESE 17.3 mph 33.4 mph N/A Rain Light Rain Showers
11:18 AM 77.0 °F - 68.0 °F 74% 29.98 in 6.2 mi ESE 24.2 mph - N/A Thunderstorm Thunderstorm
12:00 PM 78.8 °F - 66.2 °F 65% 29.98 in 6.2 mi ESE 11.5 mph - N/A   Mostly Cloudy
1:00 PM 82 °F - 63 °F 42% 29.96 in 3 mi East 16.1 mph - - Rain Light Rain Showers
1:00 PM 82.4 °F 83.4 °F 62.6 °F 51% 29.95 in 6.2 mi East 16.1 mph - N/A Rain Light Rain Showers
2:00 PM 84.2 °F 85.6 °F 64.4 °F 51% 29.92 in 6.2 mi East 11.5 mph - N/A   Mostly Cloudy
3:00 PM 84.2 °F 84.4 °F 60.8 °F 45% 29.89 in 6.2 mi ESE 11.5 mph - N/A   Mostly Cloudy
4:00 PM 83 °F - 64 °F 42% 29.88 in 4 mi ESE 16.1 mph - -   Haze
4:00 PM 82.4 °F 83.9 °F 64.4 °F 54% 29.86 in 6.2 mi ESE 16.1 mph - N/A   Mostly Cloudy
5:00 PM 84.2 °F 85.6 °F 64.4 °F 51% 29.89 in 6.2 mi ESE 8.1 mph - N/A   Mostly Cloudy
6:00 PM 84.2 °F 85.0 °F 62.6 °F 48% 29.89 in 6.2 mi ESE 8.1 mph - N/A   Mostly Cloudy
7:00 PM 82 °F - 66 °F 50% 29.92 in 4 mi East 8.1 mph - -   Haze
7:00 PM 82.4 °F 86.3 °F 69.8 °F 66% 29.83 in 6.2 mi East 3.5 mph - N/A   Scattered Clouds
8:00 PM 82.4 °F 84.6 °F 66.2 °F 58% 29.92 in 6.2 mi North 4.6 mph - N/A Thunderstorm Mostly Cloudy
9:00 PM 80.6 °F 82.7 °F 66.2 °F 61% 29.95 in 6.2 mi North 5.8 mph - N/A Thunderstorm Mostly Cloudy
10:00 PM 80 °F - - %  in 4 mi WNW 4.6 mph - -  
10:00 PM 80.6 °F 82.7 °F 66.2 °F 61% 29.95 in 6.2 mi WNW 4.6 mph - N/A Thunderstorm Mostly Cloudy
11:00 PM 80.6 °F 82.7 °F 66.2 °F 61% 29.95 in 6.2 mi NNW 5.8 mph - N/A Thunderstorm Thunderstorm